| time (UTC) | temp C | wind direction | speed KPH | gust KPH | rain 1hr cm | rain 24hr cm | rain mn cm | humidity % | barometer mb |
| 20260504202706 | 23 | 206 | 1.6 | 3.2 | 0.00 | 0.00 | 0.00 | 32 | 1005.6 |
| 20260504202203 | 22 | 26 | 1.6 | 3.2 | 0.00 | 0.00 | 0.00 | 32 | 1006.1 |
| 20260504201700 | 22 | 175 | 6.4 | 9.7 | 0.00 | 0.00 | 0.00 | 35 | 1006.1 |
| 20260504201158 | 23 | 211 | 14.5 | 17.7 | 0.00 | 0.00 | 0.00 | 32 | 1006.3 |
| 20260504200655 | 23 | 266 | 11.3 | 12.9 | 0.00 | 0.00 | 0.00 | 34 | 1006.3 |
| 20260504200151 | 23 | 329 | 6.4 | 11.3 | 0.00 | 0.00 | 0.00 | 36 | 1006.5 |
| 20260504195647 | 23 | 265 | 1.6 | 4.8 | 0.00 | 0.00 | 0.00 | 34 | 1006.3 |
| 20260504195143 | 23 | 232 | 4.8 | 8.0 | 0.00 | 0.00 | 0.00 | 35 | 1006.5 |
| 20260504194641 | 23 | 233 | 0.0 | 1.6 | 0.00 | 0.00 | 0.00 | 34 | 1006.6 |
| 20260504194137 | 22 | 251 | 6.4 | 9.7 | 0.00 | 0.00 | 0.00 | 34 | 1007.1 |
| 20260504193633 | 23 | 219 | 9.7 | 14.5 | 0.00 | 0.00 | 0.00 | 34 | 1006.9 |
| 20260504193131 | 22 | 227 | 0.0 | 0.0 | 0.00 | 0.00 | 0.00 | 34 | 1006.6 |
| 20260504192629 | 23 | 242 | 16.1 | 17.7 | 0.00 | 0.00 | 0.00 | 35 | 1007.0 |
| 20260504192127 | 22 | 303 | 9.7 | 12.9 | 0.00 | 0.00 | 0.00 | 35 | 1007.0 |
| 20260504191625 | 22 | 255 | 6.4 | 9.7 | 0.00 | 0.00 | 0.00 | 39 | 1007.3 |
| 20260504191121 | 22 | 308 | 17.7 | 17.7 | 0.00 | 0.00 | 0.00 | 35 | 1007.3 |
| 20260504190617 | 22 | 236 | 8.0 | 9.7 | 0.00 | 0.00 | 0.00 | 35 | 1007.4 |
| 20260504190114 | 22 | 176 | 8.0 | 9.7 | 0.00 | 0.00 | 0.00 | 39 | 1007.2 |
| 20260504185610 | 22 | 93 | 3.2 | 8.0 | 0.00 | 0.00 | 0.00 | 39 | 1007.4 |
| 20260504185107 | 21 | 159 | 19.3 | 33.8 | 0.00 | 0.00 | 0.00 | 37 | 1007.5 |
| 20260504184603 | 21 | 296 | 6.4 | 11.3 | 0.00 | 0.00 | 0.00 | 37 | 1007.5 |
| 20260504184058 | 21 | 216 | 6.4 | 9.7 | 0.00 | 0.00 | 0.00 | 38 | 1007.6 |
| 20260504183555 | 21 | 240 | 14.5 | 17.7 | 0.00 | 0.00 | 0.00 | 38 | 1007.8 |
| 20260504183053 | 21 | 313 | 11.3 | 14.5 | 0.00 | 0.00 | 0.00 | 37 | 1007.7 |
| 20260504182550 | 22 | 233 | 8.0 | 11.3 | 0.00 | 0.00 | 0.00 | 37 | 1007.8 |
| 20260504182048 | 20 | 225 | 4.8 | 8.0 | 0.00 | 0.00 | 0.00 | 40 | 1007.8 |
| 20260504181544 | 21 | 249 | 8.0 | 17.7 | 0.00 | 0.00 | 0.00 | 39 | 1008.3 |
| 20260504181043 | 21 | 235 | 12.9 | 22.5 | 0.00 | 0.00 | 0.00 | 39 | 1008.0 |
| 20260504180541 | 21 | 224 | 4.8 | 8.0 | 0.00 | 0.00 | 0.00 | 38 | 1008.4 |
| 20260504180040 | 21 | 259 | 6.4 | 9.7 | 0.00 | 0.00 | 0.00 | 38 | 1007.9 |
| 20260504175537 | 20 | 304 | 9.7 | 14.5 | 0.00 | 0.00 | 0.00 | 41 | 1008.3 |
| 20260504175034 | 21 | 302 | 17.7 | 20.9 | 0.00 | 0.00 | 0.00 | 38 | 1008.2 |
| 20260504174532 | 20 | 231 | 0.0 | 1.6 | 0.00 | 0.00 | 0.00 | 41 | 1008.4 |
| 20260504174028 | 20 | 236 | 11.3 | 12.9 | 0.00 | 0.00 | 0.00 | 41 | 1008.3 |
| 20260504173525 | 20 | 221 | 19.3 | 24.1 | 0.00 | 0.00 | 0.00 | 42 | 1008.0 |
| 20260504173022 | 20 | 11 | 14.5 | 20.9 | 0.00 | 0.00 | 0.00 | 40 | 1008.0 |
| 20260504172518 | 20 | 306 | 14.5 | 17.7 | 0.00 | 0.00 | 0.00 | 41 | 1008.5 |
| 20260504172015 | 19 | 289 | 4.8 | 9.7 | 0.00 | 0.00 | 0.00 | 45 | 1008.2 |
| 20260504171512 | 19 | 273 | 22.5 | 27.4 | 0.00 | 0.00 | 0.00 | 45 | 1008.1 |
| 20260504171009 | 19 | 266 | 9.7 | 11.3 | 0.00 | 0.00 | 0.00 | 45 | 1008.1 |
| 20260504170504 | 20 | 244 | 8.0 | 12.9 | 0.00 | 0.00 | 0.00 | 46 | 1008.3 |
| 20260504160425 | 17 | 264 | 12.9 | 16.1 | 0.00 | 0.00 | 0.00 | 50 | 1009.1 |
| 20260504150849 | 16 | 239 | 1.6 | 3.2 | 0.00 | 0.00 | 0.00 | 54 | 1009.4 |
| 20260504150345 | 16 | 229 | 8.0 | 11.3 | 0.00 | 0.00 | 0.00 | 50 | 1009.7 |
| 20260504141315 | 15 | 176 | 4.8 | 9.7 | 0.00 | 0.00 | 0.00 | 53 | 1010.0 |
| 20260504140812 | 15 | 234 | 12.9 | 14.5 | 0.00 | 0.00 | 0.00 | 52 | 1010.2 |
| 20260504140308 | 15 | 208 | 0.0 | 1.6 | 0.00 | 0.00 | 0.00 | 52 | 1010.2 |
| 20260504130736 | 12 | 244 | 3.2 | 4.8 | 0.00 | 0.00 | 0.00 | 56 | 1010.7 |
| 20260504130232 | 12 | 232 | 3.2 | 3.2 | 0.00 | 0.00 | 0.00 | 57 | 1011.0 |
| 20260504120156 | 10 | 188 | 14.5 | 14.5 | 0.00 | 0.00 | 0.00 | 60 | 1010.9 |
| 20260504110623 | 8 | 223 | 0.0 | 0.0 | 0.00 | 0.00 | 0.00 | 63 | 1010.6 |
| 20260504110119 | 8 | 226 | 1.6 | 1.6 | 0.00 | 0.00 | 0.00 | 63 | 1010.6 |
| 20260504100545 | 8 | 245 | 0.0 | 0.0 | 0.00 | 0.00 | 0.00 | 63 | 1010.7 |
| 20260504081939 | 8 | 269 | 1.6 | 3.2 | 0.00 | 0.00 | 0.00 | 62 | 1011.5 |
| 20260504081436 | 8 | 186 | 1.6 | 3.2 | 0.00 | 0.00 | 0.00 | 62 | 1011.2 |
| 20260504080931 | 8 | 225 | 1.6 | 1.6 | 0.00 | 0.00 | 0.00 | 62 | 1011.5 |
| 20260504080429 | 8 | 225 | 1.6 | 1.6 | 0.00 | 0.00 | 0.00 | 62 | 1011.5 |
| 20260504070356 | 7 | 120 | 4.8 | 4.8 | 0.00 | 0.00 | 0.00 | 68 | 1011.4 |
| 20260504050744 | 3 | 224 | 0.0 | 0.0 | 0.00 | 0.00 | 0.00 | 85 | 1012.1 |
| 20260504050241 | 3 | 223 | 4.8 | 4.8 | 0.00 | 0.00 | 0.00 | 86 | 1011.9 |
| 20260504045738 | 3 | 207 | 0.0 | 0.0 | 0.00 | 0.00 | 0.00 | 86 | 1012.0 |
| 20260504045233 | 4 | 223 | 0.0 | 1.6 | 0.00 | 0.00 | 0.00 | 85 | 1011.9 |
| 20260504044731 | 3 | 185 | 1.6 | 1.6 | 0.00 | 0.00 | 0.00 | 85 | 1012.0 |
| 20260504044228 | 4 | 186 | 3.2 | 3.2 | 0.00 | 0.00 | 0.00 | 83 | 1012.1 |
| 20260504043725 | 4 | 180 | 3.2 | 3.2 | 0.00 | 0.00 | 0.00 | 85 | 1012.1 |
| 20260504043222 | 5 | 216 | 0.0 | 0.0 | 0.00 | 0.00 | 0.00 | 84 | 1012.0 |
| 20260504042720 | 5 | 205 | 1.6 | 1.6 | 0.00 | 0.00 | 0.00 | 81 | 1012.2 |
| 20260504042216 | 5 | 192 | 3.2 | 3.2 | 0.00 | 0.00 | 0.00 | 82 | 1012.1 |
| 20260504041712 | 5 | 215 | 0.0 | 0.0 | 0.00 | 0.00 | 0.00 | 80 | 1012.2 |
| 20260504041208 | 5 | 225 | 3.2 | 3.2 | 0.00 | 0.00 | 0.00 | 79 | 1012.3 |
| 20260504040705 | 6 | 221 | 0.0 | 0.0 | 0.00 | 0.00 | 0.00 | 76 | 1011.9 |
| 20260504040202 | 6 | 214 | 3.2 | 3.2 | 0.00 | 0.00 | 0.00 | 73 | 1012.1 |
| 20260504035658 | 6 | 227 | 3.2 | 3.2 | 0.00 | 0.00 | 0.00 | 75 | 1012.1 |
| 20260504035155 | 6 | 220 | 1.6 | 3.2 | 0.00 | 0.00 | 0.00 | 75 | 1012.1 |
| 20260504034653 | 6 | 228 | 1.6 | 1.6 | 0.00 | 0.00 | 0.00 | 74 | 1011.9 |
| 20260504034150 | 7 | 226 | 3.2 | 3.2 | 0.00 | 0.00 | 0.00 | 73 | 1012.0 |
| 20260504033647 | 7 | 222 | 0.0 | 1.6 | 0.00 | 0.00 | 0.00 | 71 | 1012.2 |
| 20260504033144 | 6 | 209 | 4.8 | 4.8 | 0.00 | 0.00 | 0.00 | 73 | 1012.2 |
| 20260504032641 | 6 | 209 | 3.2 | 4.8 | 0.00 | 0.00 | 0.00 | 73 | 1012.0 |
| 20260504032138 | 6 | 194 | 3.2 | 3.2 | 0.00 | 0.00 | 0.00 | 74 | 1012.2 |
| 20260504031635 | 6 | 213 | 3.2 | 3.2 | 0.00 | 0.00 | 0.00 | 75 | 1012.2 |
| 20260504031132 | 6 | 195 | 3.2 | 3.2 | 0.00 | 0.00 | 0.00 | 74 | 1012.2 |
| 20260504030628 | 7 | 212 | 0.0 | 1.6 | 0.00 | 0.00 | 0.00 | 72 | 1012.3 |
| 20260504030125 | 6 | 213 | 3.2 | 3.2 | 0.00 | 0.00 | 0.00 | 74 | 1012.2 |
| 20260504025622 | 6 | 208 | 1.6 | 1.6 | 0.00 | 0.00 | 0.00 | 77 | 1011.9 |
| 20260504025119 | 7 | 201 | 0.0 | 0.0 | 0.00 | 0.00 | 0.00 | 72 | 1012.3 |
| 20260504024616 | 7 | 216 | 1.6 | 1.6 | 0.00 | 0.00 | 0.00 | 72 | 1012.1 |
| 20260504024113 | 7 | 191 | 3.2 | 3.2 | 0.00 | 0.00 | 0.00 | 74 | 1012.2 |
| 20260504023609 | 7 | 190 | 3.2 | 3.2 | 0.00 | 0.00 | 0.00 | 74 | 1012.1 |
| 20260504023105 | 7 | 217 | 0.0 | 0.0 | 0.00 | 0.00 | 0.00 | 72 | 1012.2 |
| 20260504022602 | 7 | 208 | 1.6 | 1.6 | 0.00 | 0.00 | 0.00 | 70 | 1012.1 |
| 20260504022058 | 7 | 211 | 0.0 | 0.0 | 0.00 | 0.00 | 0.00 | 70 | 1012.1 |
| 20260504021556 | 8 | 226 | 0.0 | 1.6 | 0.00 | 0.00 | 0.00 | 69 | 1012.0 |
| 20260504021052 | 8 | 202 | 0.0 | 0.0 | 0.00 | 0.00 | 0.00 | 69 | 1012.1 |
| 20260504020549 | 8 | 219 | 0.0 | 0.0 | 0.00 | 0.00 | 0.00 | 63 | 1012.0 |
| 20260504020045 | 8 | 217 | 0.0 | 1.6 | 0.00 | 0.00 | 0.00 | 67 | 1012.0 |
| 20260504015542 | 8 | 190 | 1.6 | 1.6 | 0.00 | 0.00 | 0.00 | 71 | 1012.3 |
| 20260504015038 | 9 | 211 | 0.0 | 0.0 | 0.00 | 0.00 | 0.00 | 63 | 1012.3 |
| 20260504014534 | 9 | 212 | 0.0 | 0.0 | 0.00 | 0.00 | 0.00 | 59 | 1012.3 |
| 20260504014032 | 10 | 213 | 0.0 | 0.0 | 0.00 | 0.00 | 0.00 | 58 | 1012.3 |
| 20260504013529 | 10 | 219 | 0.0 | 0.0 | 0.00 | 0.00 | 0.00 | 57 | 1012.3 |
| 20260504013026 | 10 | 220 | 0.0 | 0.0 | 0.00 | 0.00 | 0.00 | 55 | 1012.1 |
| 20260504012524 | 11 | 211 | 0.0 | 0.0 | 0.00 | 0.00 | 0.00 | 51 | 1012.3 |
| 20260504012022 | 12 | 217 | 0.0 | 0.0 | 0.00 | 0.00 | 0.00 | 47 | 1011.8 |
| 20260504011518 | 11 | 222 | 0.0 | 0.0 | 0.00 | 0.00 | 0.00 | 47 | 1011.9 |
| 20260504011014 | 12 | 220 | 0.0 | 0.0 | 0.00 | 0.00 | 0.00 | 46 | 1012.0 |
| 20260504010510 | 12 | 295 | 1.6 | 4.8 | 0.00 | 0.00 | 0.00 | 45 | 1011.7 |
| 20260504010006 | 12 | 269 | 4.8 | 4.8 | 0.00 | 0.00 | 0.00 | 44 | 1011.7 |
| 20260504005503 | 12 | 259 | 4.8 | 4.8 | 0.00 | 0.00 | 0.00 | 44 | 1011.9 |
| 20260504005000 | 12 | 344 | 6.4 | 8.0 | 0.00 | 0.00 | 0.00 | 45 | 1011.8 |
| 20260504004458 | 12 | 331 | 8.0 | 14.5 | 0.00 | 0.00 | 0.00 | 43 | 1012.0 |
| 20260504003954 | 12 | 264 | 8.0 | 11.3 | 0.00 | 0.00 | 0.00 | 43 | 1011.5 |
| 20260504003450 | 12 | 261 | 8.0 | 9.7 | 0.00 | 0.00 | 0.00 | 44 | 1011.9 |
| 20260504002948 | 12 | 268 | 6.4 | 8.0 | 0.00 | 0.00 | 0.00 | 42 | 1011.6 |
| 20260504002445 | 12 | 253 | 8.0 | 11.3 | 0.00 | 0.00 | 0.00 | 44 | 1011.8 |
| 20260504001942 | 12 | 267 | 4.8 | 4.8 | 0.00 | 0.00 | 0.00 | 45 | 1011.8 |
| 20260504001439 | 12 | 272 | 4.8 | 4.8 | 0.00 | 0.00 | 0.00 | 44 | 1011.7 |
| 20260504000936 | 12 | 323 | 9.7 | 14.5 | 0.00 | 0.00 | 0.00 | 44 | 1011.9 |
| 20260504000433 | 12 | 279 | 4.8 | 4.8 | 0.00 | 0.00 | 0.00 | 44 | 1011.8 |
| 20260503235930 | 12 | 300 | 6.4 | 8.0 | 0.00 | 0.00 | 0.00 | 43 | 1011.7 |
| 20260503235428 | 13 | 309 | 8.0 | 11.3 | 0.00 | 0.00 | 0.00 | 43 | 1011.8 |
| 20260503234925 | 13 | 291 | 8.0 | 9.7 | 0.00 | 0.00 | 0.00 | 44 | 1011.6 |
| 20260503234422 | 13 | 302 | 12.9 | 14.5 | 0.00 | 0.00 | 0.00 | 41 | 1011.4 |
| 20260503233920 | 13 | 306 | 6.4 | 8.0 | 0.00 | 0.00 | 0.00 | 42 | 1011.4 |
| 20260503233417 | 13 | 293 | 3.2 | 4.8 | 0.00 | 0.00 | 0.00 | 43 | 1011.6 |
| 20260503232913 | 13 | 270 | 8.0 | 9.7 | 0.00 | 0.00 | 0.00 | 41 | 1011.4 |
| 20260503232410 | 13 | 266 | 4.8 | 8.0 | 0.00 | 0.00 | 0.00 | 43 | 1011.6 |
| 20260503231908 | 13 | 292 | 0.0 | 0.0 | 0.00 | 0.00 | 0.00 | 42 | 1011.4 |
| 20260503231405 | 13 | 229 | 0.0 | 0.0 | 0.00 | 0.00 | 0.00 | 41 | 1011.6 |
| 20260503230901 | 13 | 298 | 9.7 | 11.3 | 0.00 | 0.00 | 0.00 | 40 | 1011.3 |
| 20260503230358 | 13 | 292 | 6.4 | 8.0 | 0.00 | 0.00 | 0.00 | 41 | 1011.4 |
| 20260503225856 | 13 | 247 | 3.2 | 3.2 | 0.00 | 0.00 | 0.00 | 42 | 1011.5 |
| 20260503225351 | 13 | 355 | 8.0 | 9.7 | 0.00 | 0.00 | 0.00 | 40 | 1011.3 |
| 20260503224848 | 13 | 255 | 17.7 | 22.5 | 0.00 | 0.00 | 0.00 | 39 | 1011.4 |
| 20260503224345 | 13 | 322 | 8.0 | 11.3 | 0.00 | 0.00 | 0.00 | 41 | 1011.4 |
| 20260503223843 | 14 | 321 | 14.5 | 17.7 | 0.00 | 0.00 | 0.00 | 39 | 1011.3 |
| 20260503223340 | 14 | 327 | 9.7 | 12.9 | 0.00 | 0.00 | 0.00 | 39 | 1011.3 |
| 20260503222836 | 14 | 319 | 9.7 | 14.5 | 0.00 | 0.00 | 0.00 | 40 | 1011.3 |
| 20260503222335 | 15 | 325 | 8.0 | 9.7 | 0.00 | 0.00 | 0.00 | 40 | 1011.3 |
| 20260503221832 | 14 | 311 | 14.5 | 20.9 | 0.00 | 0.00 | 0.00 | 39 | 1011.3 |
| 20260503221331 | 13 | 258 | 11.3 | 12.9 | 0.00 | 0.00 | 0.00 | 40 | 1011.3 |
| 20260503220826 | 14 | 314 | 17.7 | 29.0 | 0.00 | 0.00 | 0.00 | 39 | 1011.2 |
| 20260503220323 | 14 | 285 | 14.5 | 16.1 | 0.00 | 0.00 | 0.00 | 39 | 1011.0 |
| 20260503215820 | 14 | 266 | 8.0 | 11.3 | 0.00 | 0.00 | 0.00 | 40 | 1011.3 |
| 20260503215318 | 13 | 330 | 12.9 | 14.5 | 0.00 | 0.00 | 0.00 | 41 | 1011.3 |
| 20260503214815 | 14 | 291 | 12.9 | 16.1 | 0.00 | 0.00 | 0.00 | 42 | 1011.2 |
| 20260503214312 | 14 | 247 | 4.8 | 8.0 | 0.00 | 0.00 | 0.00 | 41 | 1011.3 |
| 20260503213810 | 15 | 299 | 14.5 | 16.1 | 0.00 | 0.00 | 0.00 | 41 | 1011.3 |
| 20260503213307 | 15 | 346 | 9.7 | 11.3 | 0.00 | 0.00 | 0.00 | 40 | 1011.3 |
| 20260503212804 | 14 | 241 | 9.7 | 12.9 | 0.00 | 0.00 | 0.00 | 41 | 1011.1 |
| 20260503212302 | 14 | 315 | 11.3 | 12.9 | 0.00 | 0.00 | 0.00 | 42 | 1011.0 |
| 20260503211759 | 14 | 252 | 8.0 | 11.3 | 0.00 | 0.00 | 0.00 | 42 | 1011.1 |
| 20260503211255 | 14 | 7 | 22.5 | 25.7 | 0.00 | 0.00 | 0.00 | 41 | 1011.0 |
| 20260503210755 | 15 | 314 | 20.9 | 27.4 | 0.00 | 0.00 | 0.00 | 40 | 1011.1 |
| 20260503210253 | 14 | 292 | 19.3 | 24.1 | 0.00 | 0.00 | 0.00 | 42 | 1011.2 |
| 20260503205748 | 15 | 324 | 19.3 | 25.7 | 0.00 | 0.00 | 0.00 | 42 | 1011.1 |
| 20260503205245 | 14 | 307 | 16.1 | 17.7 | 0.00 | 0.00 | 0.00 | 41 | 1011.3 |
| 20260503204741 | 14 | 336 | 16.1 | 20.9 | 0.00 | 0.00 | 0.00 | 42 | 1011.4 |
| 20260503204239 | 14 | 309 | 12.9 | 20.9 | 0.00 | 0.00 | 0.00 | 41 | 1011.5 |
| 20260503203736 | 15 | 220 | 8.0 | 11.3 | 0.00 | 0.00 | 0.00 | 42 | 1011.5 |
| 20260503203234 | 14 | 284 | 14.5 | 14.5 | 0.00 | 0.00 | 0.00 | 41 | 1011.5 |